| time (UTC) | temp F | wind direction | speed MPH | gust MPH | rain 1hr in | rain 24hr in | rain mn in | humidity % | barometer mb |
| 20260507192752 | 96 | 60 | 5.0 | 10.0 | 0.00 | 0.00 | 0.00 | 100 | 1017.1 |
| 20260507192251 | 96 | 327 | 4.0 | 11.0 | 0.00 | 0.00 | 0.00 | 100 | 1017.0 |
| 20260507192247 | 96 | 21 | 3.0 | 11.0 | 0.00 | 0.00 | 0.00 | 100 | 1017.0 |
| 20260507191514 | 96 | 50 | 4.0 | 14.0 | 0.00 | 0.00 | 0.00 | 100 | 1016.9 |
| 20260507190743 | 96 | 116 | 3.0 | 14.0 | 0.00 | 0.00 | 0.00 | 100 | 1017.1 |
| 20260507190504 | 95 | 36 | 6.0 | 9.0 | 0.00 | 0.00 | 0.00 | 100 | 1017.0 |
| 20260507185734 | 95 | 91 | 4.0 | 10.0 | 0.00 | 0.00 | 0.00 | 100 | 1017.0 |
| 20260507185230 | 95 | 133 | 4.0 | 10.0 | 0.00 | 0.00 | 0.00 | 100 | 1017.0 |
| 20260507184729 | 95 | 185 | 4.0 | 12.0 | 0.00 | 0.00 | 0.00 | 100 | 1016.9 |
| 20260507184222 | 95 | 112 | 7.0 | 12.0 | 0.00 | 0.00 | 0.00 | 100 | 1016.7 |
| 20260507183716 | 96 | 78 | 4.0 | 11.0 | 0.00 | 0.00 | 0.00 | 100 | 1016.9 |
| 20260507183215 | 96 | 98 | 6.0 | 11.0 | 0.00 | 0.00 | 0.00 | 100 | 1016.8 |
| 20260507182947 | 96 | 309 | 3.0 | 9.0 | 0.00 | 0.00 | 0.00 | 100 | 1017.5 |
| 20260507182441 | 95 | 28 | 4.0 | 11.0 | 0.00 | 0.00 | 0.00 | 100 | 1017.0 |
| 20260507181710 | 95 | 330 | 4.0 | 13.0 | 0.00 | 0.00 | 0.00 | 100 | 1017.1 |
| 20260507181442 | 95 | 351 | 4.0 | 13.0 | 0.00 | 0.00 | 0.00 | 100 | 1016.9 |
| 20260507180704 | 95 | 14 | 5.0 | 11.0 | 0.00 | 0.00 | 0.00 | 100 | 1017.5 |
| 20260507180203 | 95 | 70 | 4.0 | 10.0 | 0.00 | 0.00 | 0.00 | 100 | 1017.1 |
| 20260507175935 | 95 | 358 | 6.0 | 10.0 | 0.00 | 0.00 | 0.00 | 100 | 1017.0 |
| 20260507175202 | 95 | 4 | 5.0 | 13.0 | 0.00 | 0.00 | 0.00 | 100 | 1017.1 |
| 20260507174702 | 95 | 81 | 5.0 | 13.0 | 0.00 | 0.00 | 0.00 | 100 | 1017.1 |
| 20260507174202 | 95 | 21 | 7.0 | 12.0 | 0.00 | 0.00 | 0.00 | 100 | 1017.1 |
| 20260507173702 | 95 | 25 | 2.0 | 13.0 | 0.00 | 0.00 | 0.00 | 100 | 1017.1 |
| 20260507173202 | 95 | 87 | 5.0 | 13.0 | 0.00 | 0.00 | 0.00 | 100 | 1017.6 |
| 20260507172659 | 94 | 28 | 2.0 | 11.0 | 0.00 | 0.00 | 0.00 | 100 | 1017.6 |
| 20260507172158 | 94 | 80 | 6.0 | 11.0 | 0.00 | 0.00 | 0.00 | 100 | 1017.7 |
| 20260507171658 | 94 | 33 | 4.0 | 11.0 | 0.00 | 0.00 | 0.00 | 100 | 1017.3 |
| 20260507171158 | 94 | 139 | 4.0 | 10.0 | 0.00 | 0.00 | 0.00 | 100 | 1016.9 |
| 20260507170658 | 93 | 9 | 6.0 | 10.0 | 0.00 | 0.00 | 0.00 | 100 | 1016.9 |
| 20260507170157 | 93 | 84 | 2.0 | 11.0 | 0.00 | 0.00 | 0.00 | 100 | 1016.8 |
| 20260507165648 | 93 | 358 | 0.0 | 11.0 | 0.00 | 0.00 | 0.00 | 100 | 1016.8 |
| 20260507165414 | 93 | 26 | 4.0 | 13.0 | 0.00 | 0.00 | 0.00 | 100 | 1017.5 |
| 20260507164643 | 93 | 323 | 7.0 | 13.0 | 0.00 | 0.00 | 0.00 | 100 | 1017.7 |
| 20260507164143 | 92 | 22 | 4.0 | 11.0 | 0.00 | 0.00 | 0.00 | 100 | 1017.1 |
| 20260507163643 | 93 | 74 | 2.0 | 13.0 | 0.00 | 0.00 | 0.00 | 100 | 1017.7 |
| 20260507163133 | 92 | 317 | 5.0 | 13.0 | 0.00 | 0.00 | 0.00 | 100 | 1017.2 |
| 20260507162632 | 92 | 43 | 5.0 | 11.0 | 0.00 | 0.00 | 0.00 | 100 | 1018.1 |
| 20260507162130 | 93 | 56 | 2.0 | 9.0 | 0.00 | 0.00 | 0.00 | 100 | 1018.0 |
| 20260507161629 | 93 | 45 | 1.0 | 9.0 | 0.00 | 0.00 | 0.00 | 100 | 1018.3 |
| 20260507161129 | 93 | 334 | 5.0 | 9.0 | 0.00 | 0.00 | 0.00 | 100 | 1019.0 |
| 20260507160629 | 93 | 310 | 0.0 | 10.0 | 0.00 | 0.00 | 0.00 | 100 | 1019.0 |
| 20260507160113 | 93 | 5 | 4.0 | 11.0 | 0.00 | 0.00 | 0.00 | 100 | 1018.9 |
| 20260507155614 | 92 | 74 | 2.0 | 11.0 | 0.00 | 0.00 | 0.00 | 100 | 1018.8 |
| 20260507155342 | 92 | 42 | 0.0 | 11.0 | 0.00 | 0.00 | 0.00 | 100 | 1018.2 |
| 20260507154842 | 92 | 94 | 4.0 | 9.0 | 0.00 | 0.00 | 0.00 | 100 | 1018.0 |
| 20260507154111 | 93 | 99 | 3.0 | 12.0 | 0.00 | 0.00 | 0.00 | 100 | 1018.2 |
| 20260507153612 | 93 | 120 | 6.0 | 12.0 | 0.00 | 0.00 | 0.00 | 100 | 1018.2 |
| 20260507153112 | 93 | 357 | 6.0 | 11.0 | 0.00 | 0.00 | 0.00 | 100 | 1018.6 |
| 20260507152612 | 93 | 358 | 4.0 | 10.0 | 0.00 | 0.00 | 0.00 | 100 | 1018.3 |
| 20260507152110 | 93 | 57 | 3.0 | 10.0 | 0.00 | 0.00 | 0.00 | 100 | 1018.0 |
| 20260507151610 | 93 | 4 | 6.0 | 10.0 | 0.00 | 0.00 | 0.00 | 100 | 1018.0 |
| 20260507151110 | 93 | 347 | 6.0 | 11.0 | 0.00 | 0.00 | 0.00 | 100 | 1018.2 |
| 20260507150609 | 92 | 333 | 7.0 | 11.0 | 0.00 | 0.00 | 0.00 | 100 | 1018.3 |
| 20260507150108 | 92 | 358 | 2.0 | 10.0 | 0.00 | 0.00 | 0.00 | 100 | 1018.3 |
| 20260507145608 | 93 | 310 | 4.0 | 9.0 | 0.00 | 0.00 | 0.00 | 100 | 1018.3 |
| 20260507145108 | 92 | 14 | 3.0 | 10.0 | 0.00 | 0.00 | 0.00 | 100 | 1018.6 |
| 20260507144609 | 93 | 305 | 1.0 | 10.0 | 0.00 | 0.00 | 0.00 | 100 | 1018.6 |
| 20260507144108 | 92 | 330 | 1.0 | 8.0 | 0.00 | 0.00 | 0.00 | 100 | 1018.6 |
| 20260507143103 | 93 | 5 | 4.0 | 10.0 | 0.00 | 0.00 | 0.00 | 100 | 1018.3 |
| 20260507142603 | 93 | 307 | 4.0 | 14.0 | 0.00 | 0.00 | 0.00 | 100 | 1018.0 |
| 20260507142103 | 93 | 333 | 3.0 | 14.0 | 0.00 | 0.00 | 0.00 | 100 | 1017.7 |
| 20260507141543 | 93 | 306 | 4.0 | 11.0 | 0.00 | 0.00 | 0.00 | 100 | 1017.8 |
| 20260507141315 | 93 | 8 | 0.0 | 10.0 | 0.00 | 0.00 | 0.00 | 100 | 1018.0 |
| 20260507140543 | 93 | 56 | 3.0 | 11.0 | 0.00 | 0.00 | 0.00 | 100 | 1018.0 |
| 20260507140043 | 93 | 358 | 8.0 | 14.0 | 0.00 | 0.00 | 0.00 | 100 | 1018.0 |
| 20260507135814 | 93 | 108 | 2.0 | 14.0 | 0.00 | 0.00 | 0.00 | 100 | 1017.8 |
| 20260507135025 | 93 | 354 | 2.0 | 11.0 | 0.00 | 0.00 | 0.00 | 100 | 1017.6 |
| 20260507134523 | 93 | 358 | 6.0 | 11.0 | 0.00 | 0.00 | 0.00 | 100 | 1017.6 |
| 20260507134013 | 93 | 333 | 4.0 | 13.0 | 0.00 | 0.00 | 0.00 | 100 | 1017.2 |
| 20260507133505 | 92 | 358 | 6.0 | 13.0 | 0.00 | 0.00 | 0.00 | 100 | 1017.2 |
| 20260507133002 | 93 | 319 | 4.0 | 12.0 | 0.00 | 0.00 | 0.00 | 100 | 1017.1 |
| 20260507132500 | 93 | 57 | 5.0 | 15.0 | 0.00 | 0.00 | 0.00 | 100 | 1017.2 |
| 20260507131948 | 93 | 7 | 6.0 | 13.0 | 0.00 | 0.00 | 0.00 | 100 | 1017.2 |
| 20260507131944 | 93 | 12 | 8.0 | 15.0 | 0.00 | 0.00 | 0.00 | 100 | 1017.2 |
| 20260507130944 | 92 | 327 | 7.0 | 11.0 | 0.00 | 0.00 | 0.00 | 100 | 1017.1 |
| 20260507130444 | 92 | 35 | 4.0 | 11.0 | 0.00 | 0.00 | 0.00 | 100 | 1017.1 |
| 20260507125943 | 92 | 307 | 6.0 | 11.0 | 0.00 | 0.00 | 0.00 | 100 | 1017.2 |
| 20260507125444 | 92 | 26 | 2.0 | 11.0 | 0.00 | 0.00 | 0.00 | 100 | 1017.3 |
| 20260507124938 | 91 | 4 | 4.0 | 12.0 | 0.00 | 0.00 | 0.00 | 100 | 1017.3 |
| 20260507124438 | 91 | 37 | 2.0 | 12.0 | 0.00 | 0.00 | 0.00 | 100 | 1017.1 |
| 20260507124209 | 91 | 5 | 5.0 | 11.0 | 0.00 | 0.00 | 0.00 | 100 | 1017.1 |
| 20260507123438 | 91 | 21 | 4.0 | 11.0 | 0.00 | 0.00 | 0.00 | 100 | 1017.2 |
| 20260507122938 | 92 | 358 | 5.0 | 13.0 | 0.00 | 0.00 | 0.00 | 100 | 1017.1 |
| 20260507122435 | 92 | 12 | 3.0 | 13.0 | 0.00 | 0.00 | 0.00 | 100 | 1017.3 |
| 20260507121935 | 92 | 0 | 4.0 | 12.0 | 0.00 | 0.00 | 0.00 | 100 | 1017.2 |
| 20260507121435 | 92 | 37 | 7.0 | 13.0 | 0.00 | 0.00 | 0.00 | 100 | 1017.0 |
| 20260507121204 | 92 | 326 | 4.0 | 13.0 | 0.00 | 0.00 | 0.00 | 100 | 1016.7 |
| 20260507120434 | 92 | 358 | 4.0 | 10.0 | 0.00 | 0.00 | 0.00 | 100 | 1016.7 |
| 20260507115934 | 92 | 37 | 0.0 | 11.0 | 0.00 | 0.00 | 0.00 | 100 | 1016.5 |
| 20260507115433 | 92 | 28 | 5.0 | 14.0 | 0.00 | 0.00 | 0.00 | 100 | 1016.5 |
| 20260507114931 | 92 | 30 | 3.0 | 14.0 | 0.00 | 0.00 | 0.00 | 100 | 1016.5 |
| 20260507114423 | 92 | 343 | 6.0 | 13.0 | 0.00 | 0.00 | 0.00 | 100 | 1016.4 |
| 20260507113923 | 92 | 330 | 7.0 | 14.0 | 0.00 | 0.00 | 0.00 | 100 | 1016.2 |
| 20260507113422 | 92 | 73 | 2.0 | 14.0 | 0.00 | 0.00 | 0.00 | 100 | 1016.4 |
| 20260507112923 | 92 | 327 | 6.0 | 12.0 | 0.00 | 0.00 | 0.00 | 100 | 1016.1 |
| 20260507112655 | 92 | 358 | 4.0 | 11.0 | 0.00 | 0.00 | 0.00 | 100 | 1016.0 |
| 20260507111921 | 92 | 358 | 4.0 | 11.0 | 0.00 | 0.00 | 0.00 | 100 | 1016.0 |
| 20260507111421 | 93 | 340 | 4.0 | 11.0 | 0.00 | 0.00 | 0.00 | 100 | 1016.0 |
| 20260507110922 | 93 | 358 | 5.0 | 13.0 | 0.00 | 0.00 | 0.00 | 100 | 1016.1 |
| 20260507110418 | 93 | 324 | 6.0 | 13.0 | 0.00 | 0.00 | 0.00 | 100 | 1016.2 |
| 20260507105918 | 93 | 358 | 3.0 | 12.0 | 0.00 | 0.00 | 0.00 | 100 | 1016.1 |
| 20260507105417 | 93 | 90 | 8.0 | 12.0 | 0.00 | 0.00 | 0.00 | 100 | 1016.3 |
| 20260507105143 | 93 | 15 | 5.0 | 11.0 | 0.00 | 0.00 | 0.00 | 100 | 1016.3 |
| 20260507104412 | 93 | 1 | 3.0 | 11.0 | 0.00 | 0.00 | 0.00 | 100 | 1016.3 |
| 20260507103913 | 93 | 358 | 2.0 | 12.0 | 0.00 | 0.00 | 0.00 | 100 | 1016.3 |
| 20260507103641 | 93 | 333 | 6.0 | 12.0 | 0.00 | 0.00 | 0.00 | 100 | 1016.1 |
| 20260507102911 | 93 | 26 | 3.0 | 11.0 | 0.00 | 0.00 | 0.00 | 100 | 1015.9 |
| 20260507102411 | 93 | 92 | 4.0 | 18.0 | 0.00 | 0.00 | 0.00 | 100 | 1015.6 |
| 20260507101903 | 93 | 32 | 5.0 | 18.0 | 0.00 | 0.00 | 0.00 | 100 | 1015.6 |
| 20260507101635 | 93 | 8 | 3.0 | 12.0 | 0.00 | 0.00 | 0.00 | 100 | 1015.9 |
| 20260507100903 | 93 | 358 | 7.0 | 11.0 | 0.00 | 0.00 | 0.00 | 100 | 1015.4 |
| 20260507100359 | 93 | 329 | 4.0 | 10.0 | 0.00 | 0.00 | 0.00 | 100 | 1015.7 |
| 20260507100130 | 93 | 344 | 5.0 | 10.0 | 0.00 | 0.00 | 0.00 | 100 | 1015.6 |
| 20260507095358 | 93 | 303 | 4.0 | 7.0 | 0.00 | 0.00 | 0.00 | 100 | 1015.3 |
| 20260507094903 | 93 | 336 | 2.0 | 10.0 | 0.00 | 0.00 | 0.00 | 100 | 1015.8 |
| 20260507094859 | 93 | 29 | 3.0 | 8.0 | 0.00 | 0.00 | 0.00 | 100 | 1015.6 |
| 20260507093859 | 93 | 355 | 3.0 | 10.0 | 0.00 | 0.00 | 0.00 | 100 | 1015.8 |
| 20260507093346 | 93 | 73 | 1.0 | 9.0 | 0.00 | 0.00 | 0.00 | 100 | 1015.7 |
| 20260507092844 | 93 | 36 | 4.0 | 7.0 | 0.00 | 0.00 | 0.00 | 100 | 1015.7 |
| 20260507092345 | 93 | 19 | 1.0 | 7.0 | 0.00 | 0.00 | 0.00 | 100 | 1015.6 |
| 20260507091842 | 93 | 2 | 0.0 | 5.0 | 0.00 | 0.00 | 0.00 | 100 | 1015.6 |
| 20260507091327 | 93 | 16 | 1.0 | 8.0 | 0.00 | 0.00 | 0.00 | 100 | 1015.7 |
| 20260507090822 | 93 | 29 | 1.0 | 10.0 | 0.00 | 0.00 | 0.00 | 100 | 1015.7 |
| 20260507090314 | 93 | 5 | 5.0 | 10.0 | 0.00 | 0.00 | 0.00 | 100 | 1015.3 |
| 20260507085814 | 93 | 4 | 1.0 | 6.0 | 0.00 | 0.00 | 0.00 | 100 | 1015.1 |
| 20260507085312 | 94 | 331 | 0.0 | 10.0 | 0.00 | 0.00 | 0.00 | 100 | 1015.1 |
| 20260507084812 | 93 | 316 | 6.0 | 10.0 | 0.00 | 0.00 | 0.00 | 100 | 1014.9 |
| 20260507084303 | 94 | 1 | 2.0 | 10.0 | 0.00 | 0.00 | 0.00 | 100 | 1014.8 |
| 20260507083804 | 94 | 303 | 4.0 | 8.0 | 0.00 | 0.00 | 0.00 | 100 | 1014.8 |
| 20260507083300 | 94 | 337 | 4.0 | 7.0 | 0.00 | 0.00 | 0.00 | 100 | 1015.0 |
| 20260507082801 | 94 | 7 | 0.0 | 10.0 | 0.00 | 0.00 | 0.00 | 100 | 1014.9 |
| 20260507082256 | 94 | 358 | 2.0 | 10.0 | 0.00 | 0.00 | 0.00 | 100 | 1014.7 |
| 20260507081749 | 94 | 327 | 4.0 | 8.0 | 0.00 | 0.00 | 0.00 | 100 | 1014.9 |
| 20260507081519 | 94 | 88 | 3.0 | 7.0 | 0.00 | 0.00 | 0.00 | 100 | 1014.6 |
| 20260507080748 | 94 | 23 | 4.0 | 7.0 | 0.00 | 0.00 | 0.00 | 100 | 1014.8 |
| 20260507080518 | 94 | 45 | 0.0 | 5.0 | 0.00 | 0.00 | 0.00 | 100 | 1014.6 |
| 20260507075744 | 94 | 350 | 0.0 | 9.0 | 0.00 | 0.00 | 0.00 | 100 | 1014.8 |
| 20260507075504 | 94 | 326 | 1.0 | 9.0 | 0.00 | 0.00 | 0.00 | 100 | 1014.3 |
| 20260507074733 | 94 | 147 | 1.0 | 10.0 | 0.00 | 0.00 | 0.00 | 100 | 1014.3 |
| 20260507074233 | 94 | 358 | 0.0 | 11.0 | 0.00 | 0.00 | 0.00 | 100 | 1014.3 |
| 20260507073731 | 94 | 358 | 2.0 | 11.0 | 0.00 | 0.00 | 0.00 | 100 | 1014.6 |
| 20260507073231 | 94 | 71 | 2.0 | 9.0 | 0.00 | 0.00 | 0.00 | 100 | 1014.7 |
| 20260507073006 | 94 | 63 | 3.0 | 9.0 | 0.00 | 0.00 | 0.00 | 100 | 1014.5 |
| 20260507072503 | 95 | 54 | 2.0 | 9.0 | 0.00 | 0.00 | 0.00 | 100 | 1014.6 |
| 20260507071728 | 95 | 40 | 0.0 | 9.0 | 0.00 | 0.00 | 0.00 | 100 | 1014.2 |
| 20260507071231 | 95 | 350 | 2.0 | 10.0 | 0.00 | 0.00 | 0.00 | 100 | 1014.4 |
| 20260507071226 | 95 | 74 | 5.0 | 9.0 | 0.00 | 0.00 | 0.00 | 100 | 1014.2 |
| 20260507070227 | 95 | 338 | 5.0 | 10.0 | 0.00 | 0.00 | 0.00 | 100 | 1014.5 |
| 20260507065725 | 95 | 26 | 5.0 | 9.0 | 0.00 | 0.00 | 0.00 | 100 | 1014.6 |
| 20260507065224 | 95 | 87 | 2.0 | 9.0 | 0.00 | 0.00 | 0.00 | 100 | 1014.4 |
| 20260507064955 | 95 | 56 | 2.0 | 8.0 | 0.00 | 0.00 | 0.00 | 100 | 1014.5 |
| 20260507064830 | 95 | 357 | 1.0 | 11.0 | 0.00 | 0.00 | 0.00 | 100 | 1014.4 |
| 20260507063720 | 95 | 35 | 1.0 | 11.0 | 0.00 | 0.00 | 0.00 | 100 | 1014.4 |
| 20260507063212 | 95 | 70 | 6.0 | 10.0 | 0.00 | 0.00 | 0.00 | 100 | 1014.3 |
| 20260507062658 | 95 | 16 | 5.0 | 10.0 | 0.00 | 0.00 | 0.00 | 100 | 1014.1 |
| 20260507062158 | 95 | 111 | 3.0 | 10.0 | 0.00 | 0.00 | 0.00 | 100 | 1014.4 |
| 20260507061658 | 95 | 47 | 5.0 | 10.0 | 0.00 | 0.00 | 0.00 | 100 | 1014.6 |
| 20260507061158 | 95 | 23 | 6.0 | 12.0 | 0.00 | 0.00 | 0.00 | 100 | 1014.6 |
| 20260507060658 | 95 | 330 | 3.0 | 12.0 | 0.00 | 0.00 | 0.00 | 100 | 1014.2 |
| 20260507060429 | 95 | 63 | 5.0 | 9.0 | 0.00 | 0.00 | 0.00 | 100 | 1014.3 |
| 20260507055658 | 95 | 60 | 1.0 | 8.0 | 0.00 | 0.00 | 0.00 | 100 | 1014.6 |
| 20260507055158 | 95 | 18 | 4.0 | 8.0 | 0.00 | 0.00 | 0.00 | 100 | 1014.8 |
| 20260507054654 | 95 | 14 | 0.0 | 9.0 | 0.00 | 0.00 | 0.00 | 100 | 1014.7 |
| 20260507054149 | 95 | 11 | 4.0 | 9.0 | 0.00 | 0.00 | 0.00 | 100 | 1014.4 |
| 20260507053646 | 95 | 32 | 0.0 | 10.0 | 0.00 | 0.00 | 0.00 | 100 | 1014.3 |
| 20260507053146 | 95 | 43 | 3.0 | 11.0 | 0.00 | 0.00 | 0.00 | 100 | 1014.4 |
| 20260507052646 | 95 | 319 | 4.0 | 11.0 | 0.00 | 0.00 | 0.00 | 100 | 1014.3 |
| 20260507052416 | 95 | 8 | 4.0 | 10.0 | 0.00 | 0.00 | 0.00 | 100 | 1014.3 |
| 20260507052251 | 95 | 358 | 5.0 | 10.0 | 0.00 | 0.00 | 0.00 | 100 | 1014.3 |
| 20260507051144 | 95 | 74 | 2.0 | 10.0 | 0.00 | 0.00 | 0.00 | 100 | 1014.4 |
| 20260507050644 | 95 | 77 | 7.0 | 10.0 | 0.00 | 0.00 | 0.00 | 100 | 1014.2 |
| 20260507050144 | 95 | 358 | 5.0 | 11.0 | 0.00 | 0.00 | 0.00 | 100 | 1014.2 |
| 20260507045644 | 95 | 19 | 4.0 | 11.0 | 0.00 | 0.00 | 0.00 | 100 | 1014.5 |
| 20260507045145 | 95 | 358 | 5.0 | 9.0 | 0.00 | 0.00 | 0.00 | 100 | 1014.4 |
| 20260507044644 | 95 | 52 | 5.0 | 8.0 | 0.00 | 0.00 | 0.00 | 100 | 1014.3 |
| 20260507044144 | 95 | 106 | 2.0 | 8.0 | 0.00 | 0.00 | 0.00 | 100 | 1014.5 |
| 20260507043642 | 95 | 357 | 1.0 | 10.0 | 0.00 | 0.00 | 0.00 | 100 | 1014.6 |
| 20260507043141 | 95 | 68 | 6.0 | 10.0 | 0.00 | 0.00 | 0.00 | 100 | 1014.4 |
| 20260507042640 | 95 | 47 | 4.0 | 10.0 | 0.00 | 0.00 | 0.00 | 100 | 1014.5 |
| 20260507042141 | 95 | 337 | 5.0 | 11.0 | 0.00 | 0.00 | 0.00 | 100 | 1014.4 |
| 20260507041640 | 95 | 358 | 5.0 | 11.0 | 0.00 | 0.00 | 0.00 | 100 | 1014.2 |
| 20260507041140 | 95 | 5 | 0.0 | 9.0 | 0.00 | 0.00 | 0.00 | 100 | 1014.2 |
| 20260507040910 | 95 | 35 | 3.0 | 9.0 | 0.00 | 0.00 | 0.00 | 100 | 1014.5 |
| 20260507040138 | 95 | 11 | 4.0 | 9.0 | 0.00 | 0.00 | 0.00 | 100 | 1014.5 |
| 20260507035637 | 95 | 358 | 4.0 | 11.0 | 0.00 | 0.00 | 0.00 | 100 | 1014.5 |
| 20260507035123 | 95 | 29 | 3.0 | 11.0 | 0.00 | 0.00 | 0.00 | 100 | 1014.4 |
| 20260507034621 | 95 | 258 | 6.0 | 10.0 | 0.00 | 0.00 | 0.00 | 100 | 1014.3 |
| 20260507034351 | 95 | 42 | 1.0 | 10.0 | 0.00 | 0.00 | 0.00 | 100 | 1014.4 |
| 20260507033620 | 95 | 333 | 2.0 | 10.0 | 0.00 | 0.00 | 0.00 | 100 | 1014.3 |
| 20260507033120 | 95 | 337 | 5.0 | 8.0 | 0.00 | 0.00 | 0.00 | 100 | 1014.4 |
| 20260507032620 | 95 | 358 | 4.0 | 9.0 | 0.00 | 0.00 | 0.00 | 100 | 1013.9 |
| 20260507032118 | 95 | 2 | 1.0 | 9.0 | 0.00 | 0.00 | 0.00 | 100 | 1014.2 |
| 20260507031615 | 95 | 49 | 4.0 | 8.0 | 0.00 | 0.00 | 0.00 | 100 | 1014.1 |
| 20260507031116 | 95 | 358 | 0.0 | 13.0 | 0.00 | 0.00 | 0.00 | 100 | 1014.2 |
| 20260507030616 | 95 | 357 | 3.0 | 13.0 | 0.00 | 0.00 | 0.00 | 100 | 1014.2 |
| 20260507030113 | 95 | 351 | 5.0 | 12.0 | 0.00 | 0.00 | 0.00 | 100 | 1013.9 |
| 20260507025612 | 95 | 337 | 4.0 | 12.0 | 0.00 | 0.00 | 0.00 | 100 | 1013.8 |
| 20260507025112 | 95 | 270 | 5.0 | 12.0 | 0.00 | 0.00 | 0.00 | 100 | 1013.9 |
| 20260507024612 | 95 | 344 | 6.0 | 10.0 | 0.00 | 0.00 | 0.00 | 100 | 1013.6 |
| 20260507024343 | 95 | 340 | 4.0 | 10.0 | 0.00 | 0.00 | 0.00 | 100 | 1013.9 |
| 20260507023612 | 95 | 1 | 2.0 | 10.0 | 0.00 | 0.00 | 0.00 | 100 | 1013.9 |
| 20260507023109 | 95 | 313 | 7.0 | 10.0 | 0.00 | 0.00 | 0.00 | 100 | 1013.6 |
| 20260507022609 | 95 | 343 | 4.0 | 9.0 | 0.00 | 0.00 | 0.00 | 100 | 1013.5 |
| 20260507022108 | 95 | 336 | 4.0 | 9.0 | 0.00 | 0.00 | 0.00 | 100 | 1013.6 |
| 20260507021609 | 96 | 14 | 0.0 | 9.0 | 0.00 | 0.00 | 0.00 | 100 | 1013.4 |
| 20260507021337 | 96 | 324 | 7.0 | 10.0 | 0.00 | 0.00 | 0.00 | 100 | 1013.3 |
| 20260507020601 | 96 | 345 | 6.0 | 10.0 | 0.00 | 0.00 | 0.00 | 100 | 1013.2 |
| 20260507015601 | 96 | 37 | 6.0 | 12.0 | 0.00 | 0.00 | 0.00 | 100 | 1013.2 |
| 20260507015101 | 96 | 326 | 6.0 | 10.0 | 0.00 | 0.00 | 0.00 | 100 | 1013.0 |
| 20260507014601 | 96 | 347 | 4.0 | 8.0 | 0.00 | 0.00 | 0.00 | 100 | 1012.9 |
| 20260507014101 | 96 | 18 | 1.0 | 8.0 | 0.00 | 0.00 | 0.00 | 100 | 1012.9 |
| 20260507013545 | 96 | 358 | 2.0 | 8.0 | 0.00 | 0.00 | 0.00 | 100 | 1012.9 |
| 20260507013043 | 96 | 4 | 4.0 | 10.0 | 0.00 | 0.00 | 0.00 | 100 | 1012.6 |
| 20260507012543 | 96 | 30 | 0.0 | 10.0 | 0.00 | 0.00 | 0.00 | 100 | 1012.4 |
| 20260507011548 | 96 | 358 | 3.0 | 8.0 | 0.00 | 0.00 | 0.00 | 100 | 1012.3 |
| 20260507011543 | 96 | 333 | 5.0 | 10.0 | 0.00 | 0.00 | 0.00 | 100 | 1012.3 |
| 20260507010544 | 96 | 358 | 0.0 | 6.0 | 0.00 | 0.00 | 0.00 | 100 | 1012.2 |
| 20260507010045 | 96 | 78 | 3.0 | 9.0 | 0.00 | 0.00 | 0.00 | 100 | 1012.5 |
| 20260507005544 | 96 | 61 | 4.0 | 12.0 | 0.00 | 0.00 | 0.00 | 100 | 1012.4 |
| 20260507005044 | 96 | 317 | 6.0 | 12.0 | 0.00 | 0.00 | 0.00 | 100 | 1012.2 |
| 20260507004544 | 96 | 322 | 7.0 | 11.0 | 0.00 | 0.00 | 0.00 | 100 | 1012.3 |
| 20260507004044 | 96 | 25 | 2.0 | 10.0 | 0.00 | 0.00 | 0.00 | 100 | 1011.9 |
| 20260507003529 | 96 | 26 | 3.0 | 11.0 | 0.00 | 0.00 | 0.00 | 100 | 1011.9 |
| 20260507003258 | 96 | 340 | 0.0 | 11.0 | 0.00 | 0.00 | 0.00 | 100 | 1012.0 |
| 20260507002524 | 96 | 26 | 4.0 | 12.0 | 0.00 | 0.00 | 0.00 | 100 | 1011.8 |
| 20260507002021 | 96 | 94 | 5.0 | 12.0 | 0.00 | 0.00 | 0.00 | 100 | 1011.7 |
| 20260507001522 | 96 | 293 | 2.0 | 9.0 | 0.00 | 0.00 | 0.00 | 100 | 1011.9 |
| 20260507001014 | 96 | 12 | 4.0 | 11.0 | 0.00 | 0.00 | 0.00 | 100 | 1011.9 |
| 20260507000514 | 96 | 15 | 5.0 | 11.0 | 0.00 | 0.00 | 0.00 | 100 | 1011.8 |
| 20260507000012 | 96 | 37 | 5.0 | 9.0 | 0.00 | 0.00 | 0.00 | 100 | 1012.0 |
| 20260506235511 | 96 | 40 | 4.0 | 9.0 | 0.00 | 0.00 | 0.00 | 100 | 1011.7 |
| 20260506235011 | 96 | 331 | 4.0 | 13.0 | 0.00 | 0.00 | 0.00 | 100 | 1011.7 |
| 20260506234009 | 96 | 8 | 6.0 | 13.0 | 0.00 | 0.00 | 0.00 | 100 | 1011.9 |
| 20260506233508 | 96 | 354 | 4.0 | 13.0 | 0.00 | 0.00 | 0.00 | 100 | 1011.7 |
| 20260506233007 | 96 | 296 | 2.0 | 10.0 | 0.00 | 0.00 | 0.00 | 100 | 1011.6 |
| 20260506232501 | 96 | 19 | 3.0 | 11.0 | 0.00 | 0.00 | 0.00 | 100 | 1011.6 |
| 20260506232001 | 96 | 5 | 3.0 | 12.0 | 0.00 | 0.00 | 0.00 | 100 | 1011.6 |
| 20260506231459 | 96 | 23 | 6.0 | 13.0 | 0.00 | 0.00 | 0.00 | 100 | 1011.6 |
| 20260506231231 | 96 | 261 | 6.0 | 13.0 | 0.00 | 0.00 | 0.00 | 100 | 1011.6 |
| 20260506230459 | 96 | 281 | 5.0 | 11.0 | 0.00 | 0.00 | 0.00 | 100 | 1011.6 |
| 20260506225959 | 96 | 331 | 5.0 | 12.0 | 0.00 | 0.00 | 0.00 | 100 | 1011.6 |
| 20260506225459 | 96 | 358 | 6.0 | 12.0 | 0.00 | 0.00 | 0.00 | 100 | 1011.6 |
| 20260506225230 | 96 | 14 | 6.0 | 10.0 | 0.00 | 0.00 | 0.00 | 100 | 1011.6 |
| 20260506224730 | 96 | 37 | 4.0 | 10.0 | 0.00 | 0.00 | 0.00 | 100 | 1011.5 |
| 20260506223959 | 96 | 1 | 6.0 | 14.0 | 0.00 | 0.00 | 0.00 | 100 | 1011.6 |
| 20260506223459 | 96 | 15 | 8.0 | 14.0 | 0.00 | 0.00 | 0.00 | 100 | 1011.6 |
| 20260506223230 | 96 | 357 | 3.0 | 14.0 | 0.00 | 0.00 | 0.00 | 100 | 1011.6 |
| 20260506222459 | 96 | 16 | 5.0 | 11.0 | 0.00 | 0.00 | 0.00 | 100 | 1011.5 |
| 20260506221959 | 96 | 29 | 5.0 | 13.0 | 0.00 | 0.00 | 0.00 | 100 | 1011.5 |
| 20260506221459 | 96 | 25 | 6.0 | 13.0 | 0.00 | 0.00 | 0.00 | 100 | 1011.5 |
| 20260506220959 | 96 | 340 | 5.0 | 13.0 | 0.00 | 0.00 | 0.00 | 100 | 1011.5 |
| 20260506220458 | 96 | 1 | 6.0 | 13.0 | 0.00 | 0.00 | 0.00 | 100 | 1011.6 |
| 20260506215958 | 96 | 310 | 2.0 | 11.0 | 0.00 | 0.00 | 0.00 | 100 | 1011.8 |
| 20260506215459 | 96 | 340 | 6.0 | 12.0 | 0.00 | 0.00 | 0.00 | 100 | 1011.5 |
| 20260506214959 | 96 | 25 | 7.0 | 14.0 | 0.00 | 0.00 | 0.00 | 100 | 1011.4 |
| 20260506214453 | 96 | 322 | 6.0 | 14.0 | 0.00 | 0.00 | 0.00 | 100 | 1011.3 |
| 20260506213953 | 97 | 11 | 5.0 | 16.0 | 0.00 | 0.00 | 0.00 | 100 | 1011.4 |
| 20260506213453 | 96 | 358 | 7.0 | 16.0 | 0.00 | 0.00 | 0.00 | 100 | 1011.3 |
| 20260506212952 | 96 | 30 | 5.0 | 13.0 | 0.00 | 0.00 | 0.00 | 100 | 1011.3 |
| 20260506212452 | 97 | 33 | 7.0 | 13.0 | 0.00 | 0.00 | 0.00 | 100 | 1011.3 |
| 20260506211952 | 96 | 2 | 8.0 | 13.0 | 0.00 | 0.00 | 0.00 | 100 | 1011.4 |
| 20260506211452 | 97 | 358 | 4.0 | 14.0 | 0.00 | 0.00 | 0.00 | 100 | 1011.4 |
| 20260506210953 | 97 | 40 | 6.0 | 14.0 | 0.00 | 0.00 | 0.00 | 100 | 1011.5 |
| 20260506210452 | 97 | 7 | 7.0 | 18.0 | 0.00 | 0.00 | 0.00 | 100 | 1011.5 |
| 20260506205953 | 98 | 319 | 9.0 | 18.0 | 0.00 | 0.00 | 0.00 | 100 | 1011.6 |
| 20260506205453 | 97 | 329 | 6.0 | 14.0 | 0.00 | 0.00 | 0.00 | 100 | 1011.8 |
| 20260506205225 | 97 | 5 | 7.0 | 14.0 | 0.00 | 0.00 | 0.00 | 100 | 1011.6 |
| 20260506204452 | 97 | 298 | 9.0 | 15.0 | 0.00 | 0.00 | 0.00 | 100 | 1011.7 |
| 20260506203953 | 98 | 310 | 6.0 | 15.0 | 0.00 | 0.00 | 0.00 | 100 | 1011.8 |
| 20260506203724 | 98 | 21 | 5.0 | 12.0 | 0.00 | 0.00 | 0.00 | 100 | 1011.8 |
| 20260506202953 | 98 | 358 | 5.0 | 11.0 | 0.00 | 0.00 | 0.00 | 100 | 1011.7 |
| 20260506202452 | 99 | 358 | 4.0 | 12.0 | 0.00 | 0.00 | 0.00 | 100 | 1011.6 |
| 20260506201952 | 99 | 40 | 6.0 | 14.0 | 0.00 | 0.00 | 0.00 | 100 | 1011.5 |
| 20260506201452 | 99 | 344 | 6.0 | 15.0 | 0.00 | 0.00 | 0.00 | 100 | 1011.6 |
| 20260506200953 | 99 | 358 | 8.0 | 15.0 | 0.00 | 0.00 | 0.00 | 100 | 1011.5 |
| 20260506200453 | 100 | 355 | 7.0 | 14.0 | 0.00 | 0.00 | 0.00 | 100 | 1011.5 |
| 20260506195953 | 100 | 67 | 6.0 | 18.0 | 0.00 | 0.00 | 0.00 | 100 | 1011.3 |
| 20260506195451 | 99 | 345 | 7.0 | 18.0 | 0.00 | 0.00 | 0.00 | 100 | 1011.4 |
| 20260506194950 | 99 | 29 | 4.0 | 16.0 | 0.00 | 0.00 | 0.00 | 100 | 1011.2 |
| 20260506194450 | 99 | 352 | 7.0 | 16.0 | 0.00 | 0.00 | 0.00 | 100 | 1011.2 |
| 20260506194221 | 99 | 42 | 7.0 | 15.0 | 0.00 | 0.00 | 0.00 | 100 | 1011.1 |
| 20260506193449 | 99 | 2 | 8.0 | 16.0 | 0.00 | 0.00 | 0.00 | 100 | 1011.0 |
| 20260506193221 | 99 | 37 | 10.0 | 16.0 | 0.00 | 0.00 | 0.00 | 100 | 1011.1 |